Location: Unspecified
(58.9933°N, 5.6375°E)
Time: 22:38:16
(UTC+02:00)

CZ-3 Stage 3 - Visible Passes

Search period start: 30 March 2017 00:00
Search period end: 09 April 2017 00:00
Orbit: 398 x 34803 km, 30.6° (Epoch: 29 March)

Date Brightness Start Highest point End Pass type
(mag) Time Alt. Az. Time Alt. Az. Time Alt. Az.
30 Mar 8.8 03:01:07 10° W 04:59:16 34° W 09:52:49 10° W visible
30 Mar 8.2 23:09:54 10° SW 01:38:31 55° SSW 08:02:09 10° SSW visible
31 Mar 7.7 19:36:23 10° SSE 00:50:13 45° SE 04:31:08 10° SSE visible
01 Apr 8.4 17:32:55 10° ENE 21:59:47 18° E 00:03:11 10° E visible
02 Apr 8.8 02:51:37 10° W 04:48:00 34° W 09:38:53 10° W visible
02 Apr 8.2 23:00:38 10° SW 01:24:42 55° SSW 07:51:34 10° SSW visible
03 Apr 7.7 19:26:55 10° S 00:37:34 44° SE 04:21:10 10° SSE visible
04 Apr 8.4 17:22:39 10° ENE 21:49:08 17° E 23:51:15 10° E visible
05 Apr 8.8 02:42:06 10° W 04:36:41 34° W 09:24:52 10° W visible
05 Apr 8.2 22:51:20 10° SW 01:10:53 55° S 07:40:51 10° SSW visible
06 Apr 7.7 19:17:28 10° S 00:24:52 44° SE 04:11:05 10° SSE visible
07 Apr 8.4 17:12:49 10° ENE 21:38:29 17° E 23:39:01 10° E visible
08 Apr 8.9 02:32:32 10° W 04:25:21 34° W 09:10:47 10° W visible
